DW8787 Weather Reports


time (UTC)temp
F
wind
direction
speed
knots
gust
knots
rain 1hr
in
rain 24hr
in
rain mn
in
humidity
%
barometer
mb
20260503223011 85 254 3.5 7.0 0.00 0.00 0.00 40 1010.1
20260503221508 85 200 1.7 8.7 0.00 0.00 0.00 41 1010.3
20260503220016 85 203 1.7 6.1 0.00 0.00 0.00 41 1010.5
20260503214502 85 248 0.0 7.8 0.00 0.00 0.00 43 1010.7
20260503213058 84 191 0.9 7.0 0.00 0.00 0.00 44 1010.7
20260503211556 83 248 4.3 8.7 0.00 0.00 0.00 42 1010.7
20260503210053 84 284 2.6 7.8 0.00 0.00 0.00 44 1011.0
20260503204549 83 188 1.7 7.0 0.00 0.00 0.00 44 1011.0
20260503203047 83 280 0.9 5.2 0.00 0.00 0.00 47 1011.3
20260503201548 83 298 1.7 5.2 0.00 0.00 0.00 48 1011.4
20260503200043 81 274 1.7 7.8 0.00 0.00 0.00 46 1011.7
20260503194542 81 160 1.7 6.1 0.00 0.00 0.00 48 1012.0
20260503193035 80 221 1.7 6.1 0.00 0.00 0.00 48 1012.1
20260503191531 79 170 2.6 8.7 0.00 0.00 0.00 50 1012.4
20260503190038 79 308 0.0 7.0 0.00 0.00 0.00 54 1012.5
20260503184527 78 312 2.6 8.7 0.00 0.00 0.00 54 1012.5
20260503183022 76 217 1.7 6.1 0.00 0.00 0.00 55 1012.7
20260503181538 76 199 0.9 7.8 0.00 0.00 0.00 56 1012.8
20260503180032 75 134 1.7 6.1 0.00 0.00 0.00 57 1012.8
20260503174515 74 259 1.7 5.2 0.00 0.00 0.00 60 1013.0
20260503173013 73 292 2.6 6.1 0.00 0.00 0.00 59 1013.0
20260503171520 72 230 0.0 5.2 0.00 0.00 0.00 63 1013.1
20260503081544 55 320 0.0 0.0 0.00 0.00 0.00 87 1014.1
20260503071541 56 320 0.0 0.0 0.00 0.00 0.00 85 1014.0
20260503054538 59 317 0.0 0.0 0.00 0.00 0.00 78 1014.1
20260503053033 58 317 0.0 0.0 0.00 0.00 0.00 79 1014.0
20260503051535 59 317 0.0 0.9 0.00 0.00 0.00 80 1013.9
20260503050031 60 319 0.0 0.0 0.00 0.00 0.00 76 1013.9
20260503044534 61 318 0.0 0.0 0.00 0.00 0.00 77 1013.6
20260503043031 61 319 0.0 0.9 0.00 0.00 0.00 76 1013.5
20260503041534 62 332 0.0 2.6 0.00 0.00 0.00 74 1013.1
20260503040032 62 312 0.0 0.9 0.00 0.00 0.00 74 1012.9
20260503034529 63 323 0.0 0.9 0.00 0.00 0.00 72 1012.7
20260503033028 64 332 0.0 1.7 0.00 0.00 0.00 72 1012.5
20260503031528 65 248 0.0 0.9 0.00 0.00 0.00 70 1012.4
20260503030033 66 273 0.0 1.7 0.00 0.00 0.00 70 1012.2
20260503024526 68 339 0.0 2.6 0.00 0.00 0.00 68 1012.2
20260503023026 69 155 0.0 4.3 0.00 0.00 0.00 64 1012.1
20260503021525 71 31 0.0 2.6 0.00 0.00 0.00 63 1012.1
20260503020027 74 167 1.7 5.2 0.00 0.00 0.00 56 1012.0
20260503014525 74 302 0.0 5.2 0.00 0.00 0.00 55 1012.0
20260503013024 75 193 0.0 7.0 0.00 0.00 0.00 56 1012.1
20260503011530 76 181 1.7 6.1 0.00 0.00 0.00 52 1012.0
20260503010021 76 232 0.9 8.7 0.00 0.00 0.00 52 1012.1
20260503004521 76 250 0.9 7.0 0.00 0.00 0.00 50 1012.2
20260503003021 77 165 1.7 9.6 0.00 0.00 0.00 49 1012.3
20260503001519 77 194 0.9 6.1 0.00 0.00 0.00 53 1012.2
20260503000018 76 159 1.7 8.7 0.00 0.00 0.00 49 1012.3
20260502234530 76 204 3.5 9.6 0.00 0.00 0.00 48 1012.4
20260502233011 77 159 0.9 5.2 0.00 0.00 0.00 50 1012.6
20260502231510 76 224 2.6 7.8 0.00 0.00 0.00 51 1012.8
20260502230007 76 188 0.9 11.3 0.00 0.00 0.00 54 1012.7
20260502224504 75 226 2.6 7.8 0.00 0.00 0.00 55 1013.1